TELKOM 2

Last updated on Sept. 28, 2020, 5:45 a.m. UTC

1 28902U 05046A   20271.87695132 -.00000160  00000-0  00000-0 0  9997
2 28902   0.0037 193.0153 0000876 247.7749  39.0144  1.00270837 54509
UTC
Height (km)
Latitude
Longitude
Inclination
Orbital Period
UTC large
Height (km)
Speed (km/s)
/
Latitude / Longitude
Inclination (degrees)
Orbital Period (minutes)
Azimuth
Elevation
Range (km)
Doppler Factor
iOS Compass Heading
iOS Angle

Next 30 passes for location: Hong Kong

Rise time Rise Azimuth (degrees) Set time Set Azimuth (degrees) Duration Max altitude (degrees)

No matching passes for this satellites